Regional Weather Roundup
Issued by NWS

Home | Current Version | Previous Version | Graphics & Text | Print | Product List | Glossary Off
Versions: 1 2 3 4 5 6 7 8 9 10 11 12 13 14 15 16 17 18 19 20 21 22 23 24 25 26 27 28 29 30 31 32 33 34 35 36 37 38 39 40 41 42 43 44 45 46 47 48 49 50

000
ASUS45 KPSR 211410
RWRAZ

ARIZONA REGIONAL HOURLY WEATHER ROUNDUP
NATIONAL WEATHER SERVICE PHOENIX AZ
700 AM MST SUN SEP 21 2014

NOTE: FAIR INDICATES FEW OR NO CLOUDS BELOW 12,000 FEET WITH NO
SIGNIFICANT WEATHER AND/OR OBSTRUCTIONS TO VISIBILITY.

AZZ001>003-036-211500-
NORTHWEST ARIZONA

CITY           SKY/WX    TMP DP  RH WIND       PRES   REMARKS
BULLHEAD CITY  CLEAR     84  61  45 N13G18    29.88R
KINGMAN        MOCLDY    74  54  49 CALM      30.05R
$$

AZZ004>008-015-016-018-211500-
NORTH CENTRAL ARIZONA

CITY           SKY/WX    TMP DP  RH WIND       PRES   REMARKS
GRAND CANYON   MOCLDY    57  54  89 SE3       30.28R
PRESCOTT       PTCLDY    61  50  67 S6        30.18R
FLAGSTAFF      PTCLDY    53  50  89 CALM      30.32R
PAYSON         CLEAR     61  55  82 CALM      30.21R
PAGE           MOCLDY    67  58  72 SW5       30.14R
$$

AZZ009>014-017-211500-
NORTHEAST ARIZONA

CITY           SKY/WX    TMP DP  RH WIND       PRES   REMARKS
WINSLOW        CLEAR     64  56  75 CALM      30.19R
SAINT JOHNS    SUNNY     61  51  70 CALM      30.24R
SHOW LOW       SUNNY     57  50  77 S6        30.30R
$$

AZZ023-211500-
GREATER PHOENIX AREA

CITY           SKY/WX    TMP DP  RH WIND       PRES   REMARKS
PHOENIX        PTCLDY    80  65  59 SE6       29.92R
BUCKEYE          N/A     73  57  56 N3        29.93R
GLENDALE       MOCLDY    75  64  69 CALM      29.93
LUKE AFB       MOCLDY    77  55  46 NW6       29.92R
DEER VALLEY    MOCLDY    78  66  66 E5        29.94R
SCOTTSDALE     CLOUDY    80  66  62 CALM      29.96R
MESA-FALCON    PTCLDY    79  61  53 N6        29.93R
MESA-GATEWAY   PTCLDY    75  64  69 E6        29.96R
CHANDLER       MOCLDY    77  64  65 CALM      29.94R
$$

AZZ027-028-211500-
SOUTHWEST MARICOPA COUNTY AND PINAL COUNTY

CITY           SKY/WX    TMP DP  RH WIND       PRES   REMARKS
CASA GRANDE    CLOUDY    75  61  60 CALM      29.95R
$$

AZZ503-504-507>509-211500-
SOUTHEAST ARIZONA

CITY           SKY/WX    TMP DP  RH WIND       PRES   REMARKS
TUCSON         CLOUDY    73  64  73 SE9       30.04R
DAVIS-MONTHAN  MOCLDY    72  65  79 E6        30.03R
RYAN FIELD       N/A     72  66  83 CALM      30.03R
NOGALES        CLOUDY    68  65  90 SE3       30.11R
SIERRA VISTA   MOSUNNY   68  64  87 CALM      30.16R
DOUGLAS        MOSUNNY   65  62  90 NE3       30.13R
SAFFORD        SUNNY     70  64  81 CALM      30.06R
$$

AZZ020-021-025-026-031-211500-
SOUTHWEST ARIZONA

CITY           SKY/WX    TMP DP  RH WIND       PRES   REMARKS
YUMA           CLEAR     80  55  42 NE5       29.84R
$$

CAZ031-033-041-043-047-048-061-211500-
SOUTHERN CALIFORNIA

CITY           SKY/WX    TMP DP  RH WIND       PRES   REMARKS
DOWNTOWN L.A.  CLOUDY    68  62  81 CALM      29.96R
L.A. AIRPORT   CLOUDY    68  63  84 CALM      29.97R
SAN DIEGO      MOCLDY    71  61  70 CALM      29.97R
BURBANK        CLOUDY    65  58  78 CALM      29.97R
ONTARIO        CLOUDY    65  59  81 W5        29.98R
RIVERSIDE      CLOUDY    66  60  81 CALM      29.98R
PALM SPRINGS   CLEAR     75  55  49 VRB3      29.87R
EL CENTRO NAS  CLEAR     78  46  32 SW8       29.83R
IMPERIAL       CLEAR     75  50  41 CALM      29.83R
BLYTHE         CLEAR     77  61  57 CALM      29.85R
NEEDLES        MOCLDY    84  57  39 W8        29.88R
$$

NVZ020-UTZ003-211500-
SOUTHERN NEVADA-UTAH

CITY           SKY/WX    TMP DP  RH WIND       PRES   REMARKS
LAS VEGAS      MOCLDY    75  59  57 CALM      29.96R
SALT LAKE CITY CLOUDY    69  50  50 S8        30.12S
$$

NMZ009-TXZ055-211500-
NEW MEXICO-WEST TEXAS

CITY           SKY/WX    TMP DP  RH WIND       PRES   REMARKS
ALBUQUERQUE    MOSUNNY   68  55  63 E16       30.30R
EL PASO        PTSUNNY   71  64  78 N6        30.15R
$$


........................KEY........................
SKY/WX - SKY CONDITION/WEATHER
TMP    - TEMPERATURE IN FAHRENHEIT
DP     - DEW POINT IN FAHRENHEIT
RH     - RELATIVE HUMIDITY IN PERCENT
WIND   - DIRECTION AND SPEED IN MILES PER HOUR (MPH)
VRB    - VARIABLE WIND DIRECTION
PRES   - MEAN SEA LEVEL PRESSURE IN INCHES OF MERCURY
         F - FALLING PRESSURE   R - RISING PRESSURE
         S - STEADY PRESSURE
VSB    - VISIBILITY IN MILES
HX     - HEAT INDEX IN FAHRENHEIT
WCI    - WIND CHILL INDEX IN FAHRENHEIT
TC     - TEMPERATURE IN CELSIUS WHICH IS ALSO KNOWN AS
         TEMPERATURE IN CENTIGRADE
AFB    - AIR FORCE BASE
         LUKE AFB IS LUKE AIR FORCE BASE
         DAVIS-MONTHAN IS DAVIS-MONTHAN AIR FORCE BASE
NAS    - NAVAL AIR STATION
         EL CENTRO NAS IS EL CENTRO NAVAL AIR STATION
N/A    - NOT AVAILABLE


USA.gov is the U.S. government's official web portal to all federal, state and local government web resources and services.